Home   Weather   Jaipur   Past weeks

Flag for India Past Weather in Jaipur, Rajasthan, India — Yesterday and Last 2 Weeks

88 °F

Passing clouds.

Feels Like: 85 °F
Forecast: 70 / 89 °F
Wind: 8 mph from Northwest

Location: Jaipur / Sanganer

Current Time: Oct 24, 2016 at 5:56:54 PM

Latest Report: Oct 24, 2016 at 5:00 PM

Visibility: 4 mi

Pressure: 29.83 "Hg

Humidity: 25%

Dew Point: 48 °F

Location of JaipurLocation

Past Weather in Jaipur — Graph


Jaipur Temperature Yesterday

Maximum temperature yesterday: 91 °F (at 1:00 PM)
Minimum temperature yesterday: 70 °F (at 7:00 AM)
Average temperature yesterday: 82 °F

High & Low Weather Summary for the Past Weeks

High95 °F (Oct 9, 4:30 PM)74% (Oct 11, 1:00 AM)30.01 "Hg (Oct 11, 1:00 AM)
Low66 °F (Oct 18, 6:00 AM)15% (Oct 15, 3:00 PM)29.71 "Hg (Oct 9, 4:30 PM)
Average83 °F35%29.86 "Hg
* Reported Oct 9 4:30 PM — Oct 24 4:30 PM, Jaipur, Weather by CustomWeather, © 2016

Note: Actual official high and low records may vary slightly from our data, if they occured in-between our weather recording intervals... More about our weather records


Jaipur Weather History for the Previous 24 Hours

Scroll right to see more
Time TempWeatherWind HumidityBarometerVisibility
4:30 PM
Mon, Oct 24
90 °FPassing clouds.8 mph26%29.83 "Hg4 mi
4:00 PM90 °FPassing clouds.12 mph26%29.83 "Hg4 mi
3:00 PM90 °FPassing clouds.10 mph24%29.83 "Hg4 mi
2:30 PM91 °FPassing clouds.9 mph23%29.83 "Hg4 mi
2:00 PM90 °FPassing clouds.12 mph24%29.86 "Hg4 mi
1:00 PM90 °FPassing clouds.9 mph26%29.89 "Hg4 mi
12:30 PM88 °FPassing clouds.8 mph31%29.89 "Hg4 mi
12:00 PM88 °FPassing clouds.10 mph31%29.89 "Hg4 mi
11:30 AM88 °FClear.8 mph33%29.92 "Hg4 mi
11:00 AM86 °FHaze.8 mph35%29.92 "Hg3 mi
10:30 AM84 °FHaze.8 mph37%29.92 "Hg3 mi
10:00 AM84 °FHaze.8 mph37%29.95 "Hg3 mi
9:30 AM82 °FHaze.8 mph40%29.92 "Hg3 mi
9:00 AM81 °FHaze.8 mph42%29.92 "Hg3 mi
8:30 AM79 °FHaze.8 mph45%29.92 "Hg3 mi
8:00 AM77 °FHaze.7 mph44%29.89 "Hg2 mi
7:30 AM75 °FHaze.6 mph47%29.89 "Hg2 mi
7:00 AM75 °FHaze.6 mph44%29.89 "Hg2 mi
6:30 AM75 °FHaze.3 mph44%29.86 "Hg2 mi
6:00 AM75 °FHaze.3 mph44%29.86 "Hg2 mi
5:30 AM75 °FHaze.5 mph44%29.86 "Hg2 mi
5:00 AM75 °FHaze.5 mph44%29.83 "Hg2 mi
4:00 AM75 °FHaze.6 mph44%29.83 "Hg2 mi
3:00 AM77 °FHaze.5 mph42%29.86 "Hg2 mi
12:00 AM79 °FHaze.5 mph37%29.86 "Hg2 mi
11:00 PM
Sun, Oct 23
77 °FHaze.3 mph39%29.89 "Hg2 mi
10:30 PM79 °FHaze.3 mph37%29.89 "Hg2 mi
10:00 PM79 °FHaze.3 mph37%29.89 "Hg2 mi
9:30 PM81 °FHaze.5 mph34%29.89 "Hg2 mi
9:00 PM81 °FHaze.2 mph37%29.86 "Hg2 mi
8:30 PM81 °FHaze.No wind34%29.86 "Hg2 mi
8:00 PM81 °FHaze.3 mph37%29.86 "Hg2 mi
7:30 PM82 °FHaze.2 mph32%29.86 "Hg2 mi
7:00 PM84 °FHaze.3 mph31%29.86 "Hg2 mi
6:30 PM84 °FHaze.5 mph31%29.86 "Hg2 mi
6:00 PM86 °FHaze.5 mph27%29.83 "Hg3 mi
5:30 PM88 °FClear.7 mph25%29.83 "Hg4 mi
5:00 PM90 °FClear.6 mph22%29.83 "Hg4 mi
Weather by CustomWeather, © 2016

See weather overviewHow to use our weather pages